Weather History for Charlottesville, VA

Change the Weather History Date:

Friday, November 12, 2010

  Actual Average Record
Temperature  
Mean Temperature 47 °F 48 °F  
Max Temperature 66 °F 59 °F 80 °F (1931)
Min Temperature 28 °F 37 °F 22 °F (1926)
Degree Days  
Heating Degree Days 18 17  
Month to date heating degree days 206 182  
Since 1 July heating degree days 393 531  
Cooling Degree Days 0 0  
Month to date cooling degree days 0 0  
Year to date cooling degree days 1713 1034  
Moisture  
Dew Point 24 °F    
Average Humidity 52    
Maximum Humidity 92    
Minimum Humidity 12    
Precipitation  
Precipitation 0.00 in 0.12 in 1.43 in (2004)
Month to date precipitation 1.13 1.58  
Year to date precipitation 31.20 37.31  
Sea Level Pressure  
Sea Level Pressure 30.38 in    
Wind  
Wind Speed 1 mph (ENE)    
Max Wind Speed 6 mph    
Max Gust Speed 9 mph    
Visibility 10 miles    
Events      
T = Trace of Precipitation, MM = Missing Value Source: NWS Daily Summary

Daily Weather History Graph

Daily Weather History Graph

Search for Another Location

Airport:

Trip Planner

Search our weather history database for the weather conditions in past years. The results will help you decide how hot, cold, wet, or windy it might be!

Date:

Astronomy

Nov. 12, 2010 Rise Set
Actual Time 6:51 AM EST 5:03 PM EST
Civil Twilight 6:23 AM EST 5:31 PM EST
Nautical Twilight 5:51 AM EST 6:03 PM EST
Astronomical Twilight 5:20 AM EST 6:34 PM EST
Moon 12:20 PM EST (11/12) 11:08 PM EST (11/12)
Length of Visible Light 11h 08m
Length of Day
10h 12m
Waxing Crescent, 41% of the Moon is Illuminated
Nov 12
Waxing Crescent
Nov 13
First Quarter
Nov 21
Full
Nov 28
Last Quarter
Dec 5
New

Hourly Weather History & Observations

Time (EST) Temp. Dew Point Humidity Pressure Visibility Wind Dir Wind Speed Gust Speed Precip Events Conditions
12:53 AM 33.1 °F 30.0 °F 89% 30.43 in 10.0 mi Calm Calm - N/A   Clear
1:53 AM 33.1 °F 28.9 °F 85% 30.41 in 10.0 mi Calm Calm - N/A   Clear
2:53 AM 32.0 °F 28.9 °F 88% 30.40 in 10.0 mi Calm Calm - N/A   Clear
3:53 AM 28.9 °F 27.0 °F 92% 30.41 in 10.0 mi Calm Calm - N/A   Clear
4:53 AM 30.0 °F 27.0 °F 88% 30.42 in 10.0 mi Calm Calm - N/A   Clear
5:53 AM 28.9 °F 26.1 °F 89% 30.43 in 10.0 mi Calm Calm - N/A   Clear
6:53 AM 28.0 °F 26.1 °F 92% 30.43 in 10.0 mi Calm Calm - N/A   Clear
7:53 AM 35.1 °F 30.9 °F 85% 30.44 in 10.0 mi Calm Calm - N/A   Clear
8:53 AM 43.0 °F 32.0 °F 65% 30.45 in 10.0 mi Calm Calm - N/A   Clear
9:53 AM 53.1 °F 26.1 °F 35% 30.44 in 10.0 mi Calm Calm - N/A   Clear
10:53 AM 57.0 °F 27.0 °F 32% 30.42 in 10.0 mi Calm Calm - N/A   Clear
11:53 AM 62.1 °F 21.0 °F 21% 30.39 in 10.0 mi Variable 4.6 mph - N/A   Clear
12:53 PM 64.0 °F 14.0 °F 14% 30.37 in 10.0 mi Variable 3.5 mph - N/A   Clear
1:53 PM 66.0 °F 12.9 °F 13% 30.35 in 10.0 mi Variable 4.6 mph - N/A   Clear
2:53 PM 66.0 °F 18.0 °F 16% 30.34 in 10.0 mi Calm Calm - N/A   Clear
3:53 PM 64.0 °F 17.1 °F 16% 30.34 in 10.0 mi ENE 3.5 mph - N/A   Clear
4:53 PM 55.0 °F 19.9 °F 25% 30.34 in 10.0 mi Calm Calm - N/A   Clear
5:53 PM 52.0 °F 15.1 °F 23% 30.35 in 10.0 mi Calm Calm - N/A   Clear
6:53 PM 45.0 °F 21.9 °F 40% 30.35 in 10.0 mi Calm Calm - N/A   Clear
7:53 PM 45.0 °F 19.0 °F 36% 30.35 in 10.0 mi Calm Calm - N/A   Clear
9:53 PM 37.9 °F 26.1 °F 62% 30.33 in 10.0 mi Calm Calm - N/A   Clear
10:53 PM 35.1 °F 26.1 °F 70% 30.33 in 10.0 mi Calm Calm - N/A   Clear
11:53 PM 37.9 °F 25.0 °F 60% 30.31 in 10.0 mi Calm Calm - N/A   Clear